Weather History for KMBL - February, 2014

Change the Weather History Date:

Saturday, February 22, 2014

  Actual Average Record
Temperature  
Mean Temperature 24 °F -  
Max Temperature 28 °F 37 °F 55 °F (1984)
Min Temperature 19 °F 20 °F -10 °F (1978)
Degree Days  
Heating Degree Days 42    
Moisture  
Dew Point 12 °F    
Average Humidity 62    
Maximum Humidity 74    
Minimum Humidity 51    
Precipitation  
Precipitation 0.00 in - - ()
Sea Level Pressure  
Sea Level Pressure 29.80 in    
Wind  
Wind Speed 19 mph (West)    
Max Wind Speed 24 mph    
Max Gust Speed 36 mph    
Visibility 10 miles    
Events      
Averages and records for this station are not official NWS values.
T = Trace of Precipitation, MM = Missing Value Source: NWS Daily Summary

Daily Weather History Graph

Daily Weather History Graph

Search for Another Location

Airport or City:

Trip Planner

Search our weather history database for the weather conditions in past years. The results will help you decide how hot, cold, wet, or windy it might be!

Date:

Astronomy

Feb. 22, 2014 Rise Set
Actual Time 7:33 AM EST 6:23 PM EST
Civil Twilight 7:04 AM EST 6:53 PM EST
Nautical Twilight 6:30 AM EST 7:26 PM EST
Astronomical Twilight 5:57 AM EST 8:00 PM EST
Moon 1:33 AM EST (2/22) 11:28 AM EST (2/22)
Length of Visible Light 11h 48m
Length of Day
10h 50m
Waning Gibbous, 50% of the Moon is Illuminated
Feb 22
Waning Gibbous
Feb 22
Last Quarter
Mar 1
New
Mar 8
First Quarter
Mar 16
Full

Hourly Weather History & Observations

Time (EST) Temp. Windchill Dew Point Humidity Pressure Visibility Wind Dir Wind Speed Gust Speed Precip Events Conditions
12:15 AM 23.0 °F 8.0 °F 12.2 °F 63% 29.60 in 10.0 mi West 20.7 mph 34.5 mph N/A   Overcast
12:35 AM 23.0 °F 7.6 °F 12.2 °F 63% 29.61 in 10.0 mi WSW 21.9 mph 33.4 mph N/A   Overcast
12:55 AM 23.0 °F 9.2 °F 14.0 °F 68% 29.62 in 10.0 mi WSW 17.3 mph 35.7 mph N/A   Overcast
1:15 AM 23.0 °F 7.2 °F 12.2 °F 63% 29.62 in 10.0 mi West 23.0 mph 31.1 mph N/A   Overcast
1:35 AM 21.2 °F 5.2 °F 12.2 °F 68% 29.63 in 10.0 mi West 21.9 mph 31.1 mph N/A   Overcast
1:55 AM 21.2 °F 7.3 °F 12.2 °F 68% 29.63 in 10.0 mi West 16.1 mph 32.2 mph N/A   Overcast
2:15 AM 21.2 °F 4.5 °F 12.2 °F 68% 29.63 in 10.0 mi West 24.2 mph 31.1 mph N/A   Overcast
2:35 AM 21.2 °F 4.5 °F 12.2 °F 68% 29.64 in 10.0 mi West 24.2 mph 29.9 mph N/A   Overcast
2:55 AM 21.2 °F 5.2 °F 12.2 °F 68% 29.64 in 10.0 mi West 21.9 mph 31.1 mph N/A   Overcast
3:15 AM 21.2 °F 7.3 °F 12.2 °F 68% 29.64 in 10.0 mi West 16.1 mph 28.8 mph N/A   Overcast
3:35 AM 21.2 °F 6.8 °F 12.2 °F 68% 29.65 in 10.0 mi West 17.3 mph 25.3 mph N/A   Overcast
3:55 AM 21.2 °F 5.6 °F 12.2 °F 68% 29.65 in 10.0 mi West 20.7 mph 27.6 mph N/A   Overcast
4:15 AM 21.2 °F 8.3 °F 12.2 °F 68% 29.66 in 10.0 mi West 13.8 mph 27.6 mph N/A   Overcast
4:35 AM 21.2 °F 7.3 °F 12.2 °F 68% 29.66 in 10.0 mi West 16.1 mph 26.5 mph N/A   Overcast
4:55 AM 21.2 °F 8.9 °F 12.2 °F 68% 29.68 in 10.0 mi West 12.7 mph 25.3 mph N/A   Overcast
5:15 AM 21.2 °F 8.3 °F 12.2 °F 68% 29.69 in 10.0 mi West 13.8 mph 26.5 mph N/A   Overcast
5:35 AM 21.2 °F 6.0 °F 12.2 °F 68% 29.70 in 10.0 mi WSW 19.6 mph 27.6 mph N/A   Overcast
5:55 AM 21.2 °F 7.8 °F 12.2 °F 68% 29.71 in 10.0 mi West 15.0 mph 24.2 mph N/A   Overcast
6:15 AM 21.2 °F 6.0 °F 12.2 °F 68% 29.71 in 10.0 mi West 19.6 mph 27.6 mph N/A   Overcast
6:35 AM 21.2 °F 4.9 °F 12.2 °F 68% 29.72 in 10.0 mi West 23.0 mph 31.1 mph N/A   Overcast
6:55 AM 21.2 °F 4.9 °F 12.2 °F 68% 29.73 in 10.0 mi West 23.0 mph 31.1 mph N/A   Overcast
7:15 AM 21.2 °F 5.2 °F 12.2 °F 68% 29.74 in 10.0 mi West 21.9 mph 28.8 mph N/A   Overcast
7:35 AM 19.4 °F 2.8 °F 12.2 °F 74% 29.75 in 10.0 mi West 21.9 mph 25.3 mph N/A   Overcast
7:55 AM 19.4 °F 4.1 °F 12.2 °F 74% 29.75 in 10.0 mi West 18.4 mph 26.5 mph N/A   Overcast
8:15 AM 19.4 °F 4.5 °F 12.2 °F 74% 29.76 in 10.0 mi West 17.3 mph 26.5 mph N/A   Overcast
8:35 AM 19.4 °F 5.5 °F 12.2 °F 74% 29.78 in 10.0 mi West 15.0 mph 25.3 mph N/A   Overcast
8:55 AM 19.4 °F 3.2 °F 12.2 °F 74% 29.79 in 10.0 mi West 20.7 mph 29.9 mph N/A   Overcast
9:15 AM 21.2 °F 6.8 °F 10.4 °F 63% 29.80 in 10.0 mi West 17.3 mph 27.6 mph N/A   Overcast
9:35 AM 21.2 °F 7.3 °F 10.4 °F 63% 29.81 in 10.0 mi West 16.1 mph 27.6 mph N/A   Overcast
9:55 AM 21.2 °F 6.8 °F 12.2 °F 68% 29.81 in 10.0 mi West 17.3 mph 29.9 mph N/A   Overcast
10:15 AM 21.2 °F 5.2 °F 12.2 °F 68% 29.81 in 10.0 mi West 21.9 mph 28.8 mph N/A   Overcast
10:35 AM 21.2 °F 6.4 °F 10.4 °F 63% 29.81 in 10.0 mi West 18.4 mph 25.3 mph N/A   Overcast
10:55 AM 21.2 °F 8.3 °F 10.4 °F 63% 29.82 in 10.0 mi West 13.8 mph 26.5 mph N/A   Mostly Cloudy
11:15 AM 21.2 °F 6.8 °F 12.2 °F 68% 29.83 in 10.0 mi WSW 17.3 mph 26.5 mph N/A   Overcast
11:35 AM 23.0 °F 10.1 °F 12.2 °F 63% 29.84 in 10.0 mi SW 15.0 mph 25.3 mph N/A   Overcast
11:55 AM 23.0 °F 8.3 °F 12.2 °F 63% 29.85 in 10.0 mi WSW 19.6 mph 25.3 mph N/A   Overcast
12:15 PM 23.0 °F 8.3 °F 12.2 °F 63% 29.84 in 10.0 mi West 19.6 mph 27.6 mph N/A   Overcast
12:35 PM 24.8 °F 11.5 °F 12.2 °F 59% 29.83 in 10.0 mi West 17.3 mph 27.6 mph N/A   Mostly Cloudy
12:55 PM 24.8 °F 11.1 °F 12.2 °F 59% 29.84 in 10.0 mi WSW 18.4 mph 24.2 mph N/A   Mostly Cloudy
1:15 PM 24.8 °F 10.0 °F 12.2 °F 59% 29.84 in 10.0 mi West 21.9 mph 27.6 mph N/A   Scattered Clouds
1:35 PM 24.8 °F 10.0 °F 14.0 °F 64% 29.83 in 10.0 mi WSW 21.9 mph 28.8 mph N/A   Partly Cloudy
1:55 PM 24.8 °F 10.3 °F 12.2 °F 59% 29.84 in 10.0 mi West 20.7 mph 25.3 mph N/A   Partly Cloudy
2:15 PM 26.6 °F 12.0 °F 12.2 °F 55% 29.84 in 10.0 mi WSW 23.0 mph 32.2 mph N/A   Clear
2:35 PM 26.6 °F 12.7 °F 12.2 °F 55% 29.85 in 10.0 mi WSW 20.7 mph 28.8 mph N/A   Clear
2:55 PM 26.6 °F 13.4 °F 12.2 °F 55% 29.85 in 10.0 mi WSW 18.4 mph 29.9 mph N/A   Clear
3:15 PM 26.6 °F 13.8 °F 14.0 °F 59% 29.84 in 10.0 mi WSW 17.3 mph 29.9 mph N/A   Partly Cloudy
3:35 PM 26.6 °F 14.3 °F 12.2 °F 55% 29.85 in 10.0 mi WSW 16.1 mph 24.2 mph N/A   Clear
3:55 PM 28.4 °F 17.0 °F 12.2 °F 51% 29.84 in 10.0 mi WSW 15.0 mph 28.8 mph N/A   Clear
4:15 PM 28.4 °F 15.8 °F 12.2 °F 51% 29.85 in 10.0 mi West 18.4 mph 25.3 mph N/A   Clear
4:35 PM 28.4 °F 17.0 °F 12.2 °F 51% 29.85 in 10.0 mi WSW 15.0 mph 23.0 mph N/A   Clear
4:55 PM 26.6 °F 16.2 °F 12.2 °F 55% 29.85 in 10.0 mi WSW 11.5 mph 24.2 mph N/A   Partly Cloudy
5:15 PM 26.6 °F 14.3 °F 12.2 °F 55% 29.85 in 10.0 mi WSW 16.1 mph 24.2 mph N/A   Scattered Clouds
5:35 PM 26.6 °F 15.2 °F 10.4 °F 51% 29.86 in 10.0 mi WSW 13.8 mph 24.2 mph N/A   Partly Cloudy
5:55 PM 26.6 °F 15.2 °F 10.4 °F 51% 29.86 in 10.0 mi WSW 13.8 mph 23.0 mph N/A   Partly Cloudy
6:15 PM 26.6 °F 16.8 °F 12.2 °F 55% 29.87 in 10.0 mi WSW 10.4 mph - N/A   Partly Cloudy
6:35 PM 26.6 °F 15.7 °F 10.4 °F 51% 29.86 in 10.0 mi WSW 12.7 mph 20.7 mph N/A   Partly Cloudy
6:55 PM 26.6 °F 15.2 °F 10.4 °F 51% 29.87 in 10.0 mi WSW 13.8 mph 17.3 mph N/A   Partly Cloudy
7:15 PM 26.6 °F 16.8 °F 12.2 °F 55% 29.87 in 10.0 mi WSW 10.4 mph - N/A   Partly Cloudy
7:35 PM 24.8 °F 13.4 °F 10.4 °F 54% 29.88 in 10.0 mi West 12.7 mph 16.1 mph N/A   Partly Cloudy
7:55 PM 26.6 °F 15.2 °F 12.2 °F 55% 29.88 in 10.0 mi WSW 13.8 mph 19.6 mph N/A   Scattered Clouds
8:15 PM 26.6 °F 14.7 °F 12.2 °F 55% 29.89 in 10.0 mi West 15.0 mph 20.7 mph N/A   Mostly Cloudy
8:35 PM 26.6 °F 15.7 °F 10.4 °F 51% 29.89 in 10.0 mi West 12.7 mph 24.2 mph N/A   Mostly Cloudy
8:55 PM 26.6 °F 14.3 °F 10.4 °F 51% 29.90 in 10.0 mi West 16.1 mph 21.9 mph N/A   Mostly Cloudy
9:15 PM 24.8 °F 10.7 °F 10.4 °F 54% 29.91 in 10.0 mi West 19.6 mph 26.5 mph N/A   Mostly Cloudy
9:35 PM 24.8 °F 10.0 °F 10.4 °F 54% 29.92 in 10.0 mi West 21.9 mph 29.9 mph N/A   Mostly Cloudy
9:55 PM 24.8 °F 10.7 °F 10.4 °F 54% 29.92 in 10.0 mi West 19.6 mph 24.2 mph N/A   Mostly Cloudy
10:15 PM 24.8 °F 11.5 °F 10.4 °F 54% 29.93 in 10.0 mi West 17.3 mph 25.3 mph N/A   Overcast
10:35 PM 24.8 °F 11.9 °F 10.4 °F 54% 29.94 in 10.0 mi West 16.1 mph 23.0 mph N/A   Overcast
10:55 PM 23.0 °F 8.7 °F 10.4 °F 59% 29.94 in 10.0 mi West 18.4 mph 23.0 mph N/A   Overcast
11:15 PM 21.2 °F 5.6 °F 10.4 °F 63% 29.95 in 10.0 mi West 20.7 mph 26.5 mph N/A   Overcast
11:35 PM 21.2 °F 6.4 °F 10.4 °F 63% 29.95 in 10.0 mi WNW 18.4 mph 23.0 mph N/A   Overcast
11:55 PM 21.2 °F 5.6 °F 10.4 °F 63% 29.95 in 10.0 mi WNW 20.7 mph 24.2 mph N/A   Overcast